Overview Statistics Trail Chart Weather Telemetry Raw packets
 

This is the latest recevied weather packets stored in our database for station/object ED4YAF-13. If no packets are shown the sender has not sent any weather packets the latest 10 day(s).

<< 33 34 35 36 37 >>
Time Temp. Humidity Pressure Rain* Wind** Luminosity Snow
1787794999 11.11° C 60% 1014.2 hPa - - - -
1787794106 11.11° C 59% 1014.1 hPa - - - -
1787793198 11.67° C 56% 1014 hPa - - - -
1787792305 11.67° C 54% 1014 hPa - - - -
1787791398 11.67° C 53% 1013.8 hPa - - - -
1787790499 12.22° C 51% 1013.9 hPa - - - -
1787789597 12.22° C 50% 1013.7 hPa - - - -
1787788697 12.78° C 49% 1013.7 hPa - - - -
1787787793 12.78° C 48% 1013.4 hPa - - - -
1787786880 13.33° C 46% 1013.5 hPa - - - -
1787785980 13.33° C 45% 1013.3 hPa - - - -
1787785080 13.89° C 44% 1013.2 hPa - - - -
1787783267 13.89° C 42% 1013 hPa - - - -
1787782361 14.44° C 41% 1012.5 hPa - - - -
1787781452 14.44° C 39% 1012.3 hPa - - - -
1787780541 14.44° C 38% 1012.1 hPa - - - -
1787779649 14.44° C 37% 1012.1 hPa - - - -
1787778741 15° C 36% 1012.2 hPa - - - -
1787777834 15° C 35% 1011.9 hPa - - - -
1787776921 15.56° C 33% 1011.9 hPa - - - -
1787776030 15.56° C 32% 1012 hPa - - - -
1787775092 15.56° C 31% 1011.7 hPa - - - -
1787774199 16.11° C 30% 1011.5 hPa - - - -
1787773292 16.11° C 29% 1011.1 hPa - - - -
1787772399 16.67° C 29% 1010.6 hPa - - - -

* Rain since midnight (hover to see other rain measurements)
** Current wind speed in m/s (hover to see current wind gust speed)